Starlink 30568

operational
NORAD ID: 58051 Int'l Des: 2023-158 Owner: SPXS Country: US Constellation: starlink
LEOCIRCULAR

Starlink 30568について

説明を読み込み中...

リアルタイム位置

3D地球を読み込み中...

次回通過

高度履歴

Altitude vs Time

uPlot chart will show altitude changes over time

軌道要素

1 58051U 23158A 25308.48302779 -.00002939 00000-0 -20246-3 0 9998
2 58051 43.0041 350.9573 0001722 268.7439 91.3206 15.02551365114691
Epoch: Nov 4, 2025 • Age: 7 hours

現在のステータス

高度 560.0 km
速度 7.59 km/s
衛星直下点 27.37°N, 172.83°E
打ち上げ日 Oct 13, 2023
運用期間 2 years
タイプ internet

技術仕様

分類 Payload
質量 730.00 kg
乾燥質量 700.00 kg
総質量 730.00 kg
長さ 0.30 m
直径 4.10 m
スパン 29.00 m
形状 Box + pan
製造者 SPXS
バスタイプ Starlink V2M
フェーズステータス In Orbit
所有者/国 SPXS/US

大規模コンステレーション

Loading constellations...